GLO1707 SBMO-SBBR

Flight info

Callsign GLO1707
Flight time 1h 58m
Altitude 32000
Route GAVAK DCT FROTI DCT UMGIS UZ59 VADOP
Aircraft B738/M-SDE2E3FGHIRWXY/LB1

Departure

Time 2026-04-24 18:56
Airport Zumbi dos Palmares International Airport (SBMO)

Arrival

Time 2026-04-24 20:54
Airport Presidente Juscelino Kubitschek International Airport (SBBR)
Time Latitude Longitude Altitude Speed Heading
2026-04-24 18:54 -9.50967 -35.80338 400 ft 3 kts
2026-04-24 18:55 -9.50886 -35.80233 400 ft 27 kts 99°
2026-04-24 18:55 -9.50969 -35.79787 400 ft 101 kts 101°
2026-04-24 18:55 -9.51141 -35.78873 400 ft 161 kts 101°
2026-04-24 18:56 -9.51362 -35.77691 907 ft 171 kts 101°
2026-04-24 18:56 -9.51579 -35.76542 1832 ft 168 kts 101°
2026-04-24 18:56 -9.51836 -35.75294 2166 ft 197 kts 108°
2026-04-24 18:56 -9.52673 -35.74115 2368 ft 222 kts 145°
2026-04-24 18:57 -9.54224 -35.73726 2602 ft 248 kts 184°
2026-04-24 18:57 -9.55828 -35.74486 3091 ft 267 kts 222°
2026-04-24 18:57 -9.56829 -35.76079 3909 ft 273 kts 248°
2026-04-24 18:57 -9.57276 -35.77972 4709 ft 280 kts 258°
2026-04-24 18:58 -9.57558 -35.79940 5451 ft 285 kts 260°
2026-04-24 18:58 -9.57830 -35.81945 6199 ft 290 kts 260°
2026-04-24 18:58 -9.58128 -35.83983 6950 ft 294 kts 259°
2026-04-24 18:58 -9.58451 -35.86040 7707 ft 297 kts 258°
2026-04-24 18:59 -9.58796 -35.88119 8427 ft 301 kts 258°
2026-04-24 18:59 -9.59157 -35.90222 9131 ft 304 kts 257°
2026-04-24 18:59 -9.59531 -35.92343 9843 ft 308 kts 257°
2026-04-24 18:59 -9.59915 -35.94500 10377 ft 319 kts 257°
2026-04-24 19:00 -9.60325 -35.96786 10538 ft 340 kts 258°
2026-04-24 19:00 -9.60764 -35.99213 10715 ft 360 kts 258°
2026-04-24 19:00 -9.61220 -36.01746 11082 ft 370 kts 258°
2026-04-24 19:00 -9.61683 -36.04327 11653 ft 374 kts 258°
2026-04-24 19:01 -9.62144 -36.06895 12293 ft 375 kts 258°
2026-04-24 19:01 -9.62613 -36.09508 12896 ft 378 kts 258°
2026-04-24 19:01 -9.63086 -36.12134 13482 ft 381 kts 258°
2026-04-24 19:01 -9.63564 -36.14781 14052 ft 383 kts 258°
2026-04-24 19:02 -9.63882 -36.16548 14434 ft 384 kts 258°
2026-04-24 19:02 -9.64567 -36.20120 15162 ft 388 kts 256°
2026-04-24 19:02 -9.65212 -36.22783 15695 ft 390 kts 255°
2026-04-24 19:02 -9.65908 -36.25451 16214 ft 393 kts 254°
2026-04-24 19:03 -9.66619 -36.28132 16743 ft 395 kts 254°
2026-04-24 19:03 -9.67329 -36.30828 17250 ft 398 kts 255°
2026-04-24 19:03 -9.68038 -36.33554 17763 ft 400 kts 255°
2026-04-24 19:03 -9.68741 -36.36287 18242 ft 402 kts 255°
2026-04-24 19:04 -9.69444 -36.39039 18692 ft 405 kts 255°
2026-04-24 19:04 -9.70150 -36.41822 19102 ft 409 kts 255°
2026-04-24 19:04 -9.70860 -36.44626 19522 ft 412 kts 255°
2026-04-24 19:04 -9.71574 -36.47449 19912 ft 415 kts 255°
2026-04-24 19:05 -9.72293 -36.50296 20307 ft 418 kts 255°
2026-04-24 19:05 -9.73016 -36.53156 20681 ft 421 kts 255°
2026-04-24 19:05 -9.73744 -36.56039 21050 ft 424 kts 255°
2026-04-24 19:05 -9.74479 -36.58945 21403 ft 426 kts 255°
2026-04-24 19:06 -9.75217 -36.61868 21734 ft 430 kts 255°
2026-04-24 19:06 -9.75960 -36.64809 22076 ft 432 kts 255°
2026-04-24 19:06 -9.76705 -36.67768 22404 ft 435 kts 255°
2026-04-24 19:06 -9.77455 -36.70746 22697 ft 438 kts 255°
2026-04-24 19:07 -9.78203 -36.73710 22995 ft 441 kts 255°
2026-04-24 19:07 -9.78964 -36.76731 23303 ft 443 kts 255°
2026-04-24 19:07 -9.79469 -36.78737 23498 ft 444 kts 255°
2026-04-24 19:07 -9.80494 -36.82814 23867 ft 448 kts 255°
2026-04-24 19:08 -9.81266 -36.85879 24153 ft 450 kts 255°
2026-04-24 19:08 -9.82041 -36.88960 24431 ft 452 kts 255°
2026-04-24 19:08 -9.82817 -36.92049 24702 ft 454 kts 255°
2026-04-24 19:08 -9.83598 -36.95156 24992 ft 455 kts 255°
2026-04-24 19:09 -9.84380 -36.98270 25257 ft 456 kts 255°
2026-04-24 19:09 -9.85164 -37.01394 25510 ft 458 kts 255°
2026-04-24 19:09 -9.85950 -37.04527 25752 ft 460 kts 255°
2026-04-24 19:09 -9.86741 -37.07679 25991 ft 462 kts 255°
2026-04-24 19:10 -9.87533 -37.10838 26259 ft 463 kts 255°
2026-04-24 19:10 -9.88329 -37.14009 26519 ft 464 kts 255°
2026-04-24 19:10 -9.89197 -37.17163 26750 ft 466 kts 252°
2026-04-24 19:10 -9.90176 -37.20309 26966 ft 467 kts 251°
2026-04-24 19:11 -9.91199 -37.23439 27175 ft 469 kts 251°
2026-04-24 19:11 -9.92238 -37.26582 27398 ft 471 kts 251°
2026-04-24 19:11 -9.93259 -37.29692 27605 ft 472 kts 251°
2026-04-24 19:11 -9.94286 -37.32858 27801 ft 473 kts 251°
2026-04-24 19:12 -9.95308 -37.36042 28009 ft 475 kts 251°
2026-04-24 19:12 -9.96324 -37.39235 28218 ft 476 kts 252°
2026-04-24 19:12 -9.97338 -37.42434 28419 ft 478 kts 252°
2026-04-24 19:12 -9.98354 -37.45648 28618 ft 479 kts 252°
2026-04-24 19:13 -9.99029 -37.47782 28744 ft 480 kts 252°
2026-04-24 19:13 -10.00399 -37.52111 28982 ft 482 kts 252°
2026-04-24 19:13 -10.01425 -37.55355 29120 ft 484 kts 252°
2026-04-24 19:13 -10.02455 -37.58609 29304 ft 485 kts 252°
2026-04-24 19:14 -10.03487 -37.61873 29589 ft 484 kts 252°
2026-04-24 19:14 -10.04511 -37.65114 29911 ft 482 kts 252°
2026-04-24 19:14 -10.05535 -37.68354 30204 ft 481 kts 252°
2026-04-24 19:14 -10.06557 -37.71591 30457 ft 481 kts 252°
2026-04-24 19:15 -10.07580 -37.74829 30714 ft 481 kts 252°
2026-04-24 19:15 -10.08599 -37.78058 31008 ft 479 kts 252°
2026-04-24 19:15 -10.09600 -37.81233 31324 ft 478 kts 252°
2026-04-24 19:15 -10.10611 -37.84438 31625 ft 476 kts 252°
2026-04-24 19:16 -10.12629 -37.90837 31957 ft 478 kts 252°
2026-04-24 19:16 -10.14649 -37.97252 31962 ft 475 kts 252°
2026-04-24 19:17 -10.16654 -38.03622 31967 ft 473 kts 252°
2026-04-24 19:17 -10.18651 -38.09967 31964 ft 471 kts 252°
2026-04-24 19:18 -10.20642 -38.16300 31964 ft 470 kts 252°
2026-04-24 19:18 -10.22629 -38.22628 31965 ft 470 kts 252°
2026-04-24 19:19 -10.24615 -38.28956 31965 ft 471 kts 252°
2026-04-24 19:19 -10.26273 -38.34244 31965 ft 473 kts 252°
2026-04-24 19:20 -10.28279 -38.40605 31964 ft 474 kts 251°
2026-04-24 19:20 -10.30420 -38.46945 31966 ft 475 kts 250°
2026-04-24 19:21 -10.32604 -38.53280 31963 ft 476 kts 250°
2026-04-24 19:21 -10.34778 -38.59637 31965 ft 477 kts 250°
2026-04-24 19:22 -10.36940 -38.66005 31965 ft 477 kts 250°
2026-04-24 19:22 -10.39084 -38.72342 31967 ft 477 kts 250°
2026-04-24 19:23 -10.41245 -38.78726 31964 ft 478 kts 250°
2026-04-24 19:23 -10.43406 -38.85112 31963 ft 478 kts 250°
2026-04-24 19:24 -10.45559 -38.91482 31961 ft 477 kts 250°
2026-04-24 19:24 -10.47714 -38.97861 31962 ft 477 kts 250°
2026-04-24 19:25 -10.49861 -39.04219 31963 ft 476 kts 250°
2026-04-24 19:25 -10.52007 -39.10582 31963 ft 475 kts 250°
2026-04-24 19:26 -10.54147 -39.16931 31964 ft 475 kts 250°
2026-04-24 19:26 -10.56289 -39.23292 31964 ft 475 kts 250°
2026-04-24 19:27 -10.58425 -39.29635 31962 ft 474 kts 250°
2026-04-24 19:27 -10.60559 -39.35981 31964 ft 474 kts 250°
2026-04-24 19:28 -10.62692 -39.42330 31963 ft 474 kts 250°
2026-04-24 19:28 -10.64825 -39.48682 31961 ft 475 kts 250°
2026-04-24 19:29 -10.68008 -39.58169 31953 ft 475 kts 250°
2026-04-24 19:30 -10.70138 -39.64525 31953 ft 475 kts 250°
2026-04-24 19:30 -10.72272 -39.70892 31951 ft 475 kts 250°
2026-04-24 19:31 -10.74401 -39.77252 31955 ft 475 kts 250°
2026-04-24 19:31 -10.76530 -39.83617 31957 ft 475 kts 250°
2026-04-24 19:32 -10.78659 -39.89988 31949 ft 476 kts 250°
2026-04-24 19:32 -10.80785 -39.96356 31956 ft 475 kts 250°
2026-04-24 19:33 -10.82896 -40.02683 31953 ft 476 kts 250°
2026-04-24 19:33 -10.85023 -40.09062 31954 ft 476 kts 250°
2026-04-24 19:34 -10.87268 -40.15390 31934 ft 475 kts 243°
2026-04-24 19:34 -10.90726 -40.21083 31957 ft 473 kts 234°
2026-04-24 19:35 -10.94376 -40.26661 31956 ft 474 kts 235°
2026-04-24 19:35 -10.97972 -40.32292 31953 ft 474 kts 236°
2026-04-24 19:36 -11.01543 -40.37942 31951 ft 475 kts 236°
2026-04-24 19:36 -11.05119 -40.43600 31956 ft 475 kts 236°
2026-04-24 19:37 -11.08675 -40.49226 31951 ft 476 kts 236°
2026-04-24 19:37 -11.12240 -40.54912 31956 ft 476 kts 236°
2026-04-24 19:38 -11.15798 -40.60602 31945 ft 476 kts 236°
2026-04-24 19:38 -11.19358 -40.66294 31942 ft 476 kts 236°
2026-04-24 19:39 -11.22922 -40.71992 31950 ft 476 kts 236°
2026-04-24 19:39 -11.26460 -40.77703 31953 ft 476 kts 236°
2026-04-24 19:40 -11.29977 -40.83417 31955 ft 476 kts 236°
2026-04-24 19:40 -11.33475 -40.89097 31958 ft 476 kts 236°
2026-04-24 19:41 -11.36993 -40.94805 31951 ft 476 kts 236°
2026-04-24 19:41 -11.40514 -41.00524 31953 ft 476 kts 236°
2026-04-24 19:42 -11.44033 -41.06241 31954 ft 476 kts 236°
2026-04-24 19:42 -11.47553 -41.11965 31953 ft 476 kts 236°
2026-04-24 19:43 -11.51078 -41.17699 31954 ft 477 kts 236°
2026-04-24 19:43 -11.54601 -41.23425 31958 ft 477 kts 236°
2026-04-24 19:44 -11.58129 -41.29159 31956 ft 478 kts 236°
2026-04-24 19:44 -11.61661 -41.34906 31949 ft 478 kts 236°
2026-04-24 19:45 -11.65197 -41.40666 31953 ft 478 kts 236°
2026-04-24 19:45 -11.68725 -41.46415 31955 ft 478 kts 236°
2026-04-24 19:46 -11.72232 -41.52133 31953 ft 479 kts 236°
2026-04-24 19:46 -11.75759 -41.57902 31957 ft 479 kts 236°
2026-04-24 19:47 -11.79282 -41.63676 31953 ft 479 kts 236°
2026-04-24 19:47 -11.82809 -41.69459 31956 ft 480 kts 236°
2026-04-24 19:48 -11.86121 -41.74891 31963 ft 480 kts 236°
2026-04-24 19:48 -11.91418 -41.83578 31962 ft 481 kts 236°
2026-04-24 19:49 -11.98486 -41.95192 31973 ft 482 kts 236°
2026-04-24 19:50 -12.05561 -42.06826 31974 ft 482 kts 236°
2026-04-24 19:51 -12.10859 -42.15547 31976 ft 482 kts 236°
2026-04-24 19:52 -12.16133 -42.24242 31968 ft 482 kts 236°
2026-04-24 19:52 -12.19661 -42.30059 31973 ft 481 kts 236°
2026-04-24 19:53 -12.23184 -42.35873 31971 ft 481 kts 236°
2026-04-24 19:54 -12.28459 -42.44585 31967 ft 480 kts 236°
2026-04-24 19:54 -12.31980 -42.50399 31978 ft 480 kts 236°
2026-04-24 19:55 -12.34898 -42.55218 31983 ft 479 kts 236°
2026-04-24 19:55 -12.38971 -42.61952 31976 ft 479 kts 236°
2026-04-24 19:56 -12.42473 -42.67746 31991 ft 479 kts 237°
2026-04-24 19:56 -12.45973 -42.73543 31999 ft 478 kts 237°
2026-04-24 19:57 -12.49467 -42.79333 32002 ft 478 kts 237°
2026-04-24 19:57 -12.52965 -42.85132 32006 ft 479 kts 237°
2026-04-24 19:58 -12.56465 -42.90926 32010 ft 479 kts 237°
2026-04-24 19:58 -12.59971 -42.96735 32006 ft 479 kts 237°
2026-04-24 19:59 -12.63470 -43.02537 32010 ft 479 kts 237°
2026-04-24 19:59 -12.66973 -43.08354 32007 ft 480 kts 237°
2026-04-24 20:00 -12.70481 -43.14182 32011 ft 480 kts 237°
2026-04-24 20:00 -12.73985 -43.20005 32011 ft 481 kts 237°
2026-04-24 20:01 -12.77496 -43.25846 32008 ft 481 kts 237°
2026-04-24 20:01 -12.81002 -43.31683 32010 ft 481 kts 237°
2026-04-24 20:02 -12.83917 -43.36538 32010 ft 481 kts 237°
2026-04-24 20:02 -12.87997 -43.43338 32009 ft 482 kts 237°
2026-04-24 20:03 -12.91508 -43.49191 32010 ft 482 kts 237°
2026-04-24 20:03 -12.95012 -43.55037 32009 ft 482 kts 237°
2026-04-24 20:04 -12.98521 -43.60898 32011 ft 481 kts 237°
2026-04-24 20:04 -13.02019 -43.66744 32019 ft 481 kts 237°
2026-04-24 20:05 -13.05513 -43.72586 32018 ft 481 kts 237°
2026-04-24 20:05 -13.09007 -43.78432 32020 ft 480 kts 237°
2026-04-24 20:06 -13.12499 -43.84278 32018 ft 480 kts 237°
2026-04-24 20:06 -13.15967 -43.90089 32019 ft 480 kts 237°
2026-04-24 20:07 -13.18885 -43.94981 32042 ft 479 kts 237°
2026-04-24 20:07 -13.22927 -44.01762 32052 ft 479 kts 237°
2026-04-24 20:08 -13.26406 -44.07603 32042 ft 480 kts 237°
2026-04-24 20:08 -13.29304 -44.12471 32052 ft 480 kts 237°
2026-04-24 20:09 -13.32791 -44.18328 32051 ft 481 kts 237°
2026-04-24 20:09 -13.36279 -44.24191 32049 ft 482 kts 237°
2026-04-24 20:10 -13.39775 -44.30074 32052 ft 482 kts 237°
2026-04-24 20:10 -13.43273 -44.35966 32041 ft 483 kts 237°
2026-04-24 20:11 -13.46767 -44.41854 32048 ft 483 kts 237°
2026-04-24 20:11 -13.50260 -44.47744 32043 ft 483 kts 237°
2026-04-24 20:12 -13.53730 -44.53601 32057 ft 482 kts 237°
2026-04-24 20:12 -13.57217 -44.59489 32055 ft 482 kts 237°
2026-04-24 20:13 -13.60704 -44.65382 32055 ft 482 kts 237°
2026-04-24 20:13 -13.64183 -44.71265 32054 ft 481 kts 237°
2026-04-24 20:14 -13.67656 -44.77143 32055 ft 480 kts 237°
2026-04-24 20:14 -13.71125 -44.83015 32054 ft 480 kts 237°
2026-04-24 20:15 -13.74598 -44.88900 32056 ft 480 kts 237°
2026-04-24 20:15 -13.78062 -44.94776 32057 ft 481 kts 237°
2026-04-24 20:16 -13.81526 -45.00656 32053 ft 481 kts 237°
2026-04-24 20:16 -13.84994 -45.06545 32067 ft 481 kts 237°
2026-04-24 20:17 -13.88463 -45.12441 32062 ft 481 kts 237°
2026-04-24 20:17 -13.93641 -45.21254 32067 ft 482 kts 237°
2026-04-24 20:18 -13.97094 -45.27171 32064 ft 482 kts 237°
2026-04-24 20:18 -14.00548 -45.33097 32065 ft 482 kts 237°
2026-04-24 20:19 -14.04000 -45.39021 32069 ft 482 kts 237°
2026-04-24 20:19 -14.07451 -45.44942 32061 ft 482 kts 237°
2026-04-24 20:20 -14.10903 -45.50847 32064 ft 481 kts 237°
2026-04-24 20:20 -14.14348 -45.56745 32068 ft 479 kts 237°
2026-04-24 20:21 -14.17782 -45.62629 32075 ft 479 kts 237°
2026-04-24 20:21 -14.21214 -45.68516 32074 ft 478 kts 237°
2026-04-24 20:22 -14.24615 -45.74354 32071 ft 478 kts 237°
2026-04-24 20:22 -14.28033 -45.80225 32077 ft 478 kts 237°
2026-04-24 20:23 -14.31449 -45.86099 32074 ft 478 kts 237°
2026-04-24 20:23 -14.34869 -45.91983 32076 ft 478 kts 237°
2026-04-24 20:24 -14.38289 -45.97872 32083 ft 479 kts 237°
2026-04-24 20:24 -14.41713 -46.03773 32081 ft 479 kts 238°
2026-04-24 20:25 -14.45138 -46.09678 32084 ft 480 kts 238°
2026-04-24 20:25 -14.48565 -46.15592 32084 ft 481 kts 238°
2026-04-24 20:26 -14.51973 -46.21478 32086 ft 481 kts 238°
2026-04-24 20:26 -14.55404 -46.27408 32081 ft 481 kts 238°
2026-04-24 20:27 -14.58827 -46.33328 32090 ft 480 kts 238°
2026-04-24 20:27 -14.62465 -46.39100 32093 ft 478 kts 230°
2026-04-24 20:28 -14.66784 -46.44289 32099 ft 476 kts 226°
2026-04-24 20:28 -14.71200 -46.49385 32090 ft 476 kts 227°
2026-04-24 20:29 -14.75536 -46.54552 32096 ft 475 kts 227°
2026-04-24 20:29 -14.79810 -46.59750 32100 ft 474 kts 228°
2026-04-24 20:30 -14.84070 -46.64958 32105 ft 474 kts 228°
2026-04-24 20:30 -14.88320 -46.70148 32097 ft 471 kts 228°
2026-04-24 20:31 -14.92496 -46.75249 32098 ft 461 kts 228°
2026-04-24 20:31 -14.96643 -46.80313 32031 ft 463 kts 228°
2026-04-24 20:32 -14.98729 -46.82861 31642 ft 462 kts 228°
2026-04-24 20:32 -15.00789 -46.85380 31218 ft 456 kts 228°
2026-04-24 20:32 -15.02831 -46.87879 30783 ft 452 kts 227°
2026-04-24 20:32 -15.04855 -46.90355 30350 ft 449 kts 227°
2026-04-24 20:33 -15.06860 -46.92808 29909 ft 445 kts 227°
2026-04-24 20:33 -15.08852 -46.95249 29460 ft 442 kts 227°
2026-04-24 20:33 -15.10828 -46.97668 28993 ft 438 kts 227°
2026-04-24 20:33 -15.12786 -47.00068 28545 ft 435 kts 227°
2026-04-24 20:34 -15.14706 -47.02422 28096 ft 431 kts 228°
2026-04-24 20:34 -15.16633 -47.04783 27649 ft 428 kts 228°
2026-04-24 20:34 -15.18547 -47.07130 27195 ft 425 kts 228°
2026-04-24 20:34 -15.20447 -47.09459 26751 ft 422 kts 228°
2026-04-24 20:35 -15.22327 -47.11772 26311 ft 419 kts 228°
2026-04-24 20:35 -15.24199 -47.14075 25869 ft 416 kts 228°
2026-04-24 20:35 -15.26056 -47.16361 25435 ft 413 kts 228°
2026-04-24 20:35 -15.27898 -47.18629 24985 ft 410 kts 228°
2026-04-24 20:36 -15.29732 -47.20887 24569 ft 408 kts 229°
2026-04-24 20:36 -15.31548 -47.23124 24134 ft 405 kts 229°
2026-04-24 20:36 -15.33358 -47.25354 23712 ft 403 kts 229°
2026-04-24 20:36 -15.35158 -47.27573 23280 ft 400 kts 229°
2026-04-24 20:37 -15.36942 -47.29773 22858 ft 398 kts 229°
2026-04-24 20:37 -15.38717 -47.31962 22433 ft 396 kts 229°
2026-04-24 20:37 -15.40481 -47.34140 22010 ft 393 kts 229°
2026-04-24 20:37 -15.42232 -47.36300 21586 ft 390 kts 229°
2026-04-24 20:38 -15.43971 -47.38446 21159 ft 387 kts 229°
2026-04-24 20:38 -15.45700 -47.40581 20770 ft 385 kts 229°
2026-04-24 20:38 -15.47411 -47.42696 20356 ft 382 kts 229°
2026-04-24 20:38 -15.49139 -47.44780 19944 ft 379 kts 225°
2026-04-24 20:39 -15.51145 -47.46528 19538 ft 375 kts 214°
2026-04-24 20:39 -15.53281 -47.48065 19141 ft 372 kts 213°
2026-04-24 20:39 -15.55416 -47.49574 18732 ft 370 kts 213°
2026-04-24 20:39 -15.57525 -47.51087 18331 ft 367 kts 214°
2026-04-24 20:40 -15.59609 -47.52608 17936 ft 365 kts 214°
2026-04-24 20:40 -15.61669 -47.54133 17532 ft 362 kts 215°
2026-04-24 20:40 -15.63708 -47.55652 17135 ft 360 kts 215°
2026-04-24 20:40 -15.65705 -47.57147 16749 ft 357 kts 215°
2026-04-24 20:41 -15.67711 -47.58649 16362 ft 354 kts 216°
2026-04-24 20:41 -15.69703 -47.60140 15967 ft 352 kts 216°
2026-04-24 20:41 -15.71683 -47.61622 15577 ft 349 kts 216°
2026-04-24 20:41 -15.73595 -47.63161 15170 ft 347 kts 225°
2026-04-24 20:42 -15.74906 -47.65227 14801 ft 342 kts 251°
2026-04-24 20:42 -15.75359 -47.67613 14588 ft 335 kts 266°
2026-04-24 20:42 -15.75477 -47.70022 14324 ft 333 kts 268°
2026-04-24 20:42 -15.75602 -47.72410 13955 ft 331 kts 267°
2026-04-24 20:43 -15.75743 -47.74795 13494 ft 332 kts 267°
2026-04-24 20:43 -15.75894 -47.77187 13024 ft 332 kts 267°
2026-04-24 20:43 -15.76048 -47.79580 12619 ft 331 kts 266°
2026-04-24 20:43 -15.76202 -47.81955 12228 ft 329 kts 267°
2026-04-24 20:44 -15.76355 -47.84307 11957 ft 323 kts 267°
2026-04-24 20:44 -15.76505 -47.86598 11820 ft 313 kts 267°
2026-04-24 20:44 -15.76653 -47.88824 11673 ft 304 kts 267°
2026-04-24 20:44 -15.76791 -47.90956 11547 ft 295 kts 267°
2026-04-24 20:45 -15.76926 -47.93075 11416 ft 287 kts 267°
2026-04-24 20:45 -15.77054 -47.95085 11297 ft 279 kts 267°
2026-04-24 20:45 -15.77181 -47.97065 11180 ft 270 kts 267°
2026-04-24 20:45 -15.77305 -47.98987 10989 ft 265 kts 267°
2026-04-24 20:46 -15.77428 -48.00904 10673 ft 265 kts 267°
2026-04-24 20:46 -15.77551 -48.02815 10344 ft 266 kts 267°
2026-04-24 20:46 -15.77675 -48.04732 10014 ft 266 kts 267°
2026-04-24 20:46 -15.77796 -48.06657 9678 ft 267 kts 267°
2026-04-24 20:47 -15.77919 -48.08605 9220 ft 274 kts 267°
2026-04-24 20:47 -15.78048 -48.10589 8828 ft 278 kts 267°
2026-04-24 20:47 -15.78177 -48.12575 8444 ft 274 kts 267°
2026-04-24 20:47 -15.78388 -48.14512 8080 ft 266 kts 255°
2026-04-24 20:48 -15.79274 -48.16117 7765 ft 252 kts 222°
2026-04-24 20:48 -15.80742 -48.16976 7471 ft 237 kts 194°
2026-04-24 20:48 -15.82320 -48.17133 7170 ft 222 kts 172°
2026-04-24 20:48 -15.83767 -48.16743 6876 ft 209 kts 153°
2026-04-24 20:49 -15.84951 -48.15960 6579 ft 196 kts 134°
2026-04-24 20:49 -15.85886 -48.14961 6368 ft 194 kts 129°
2026-04-24 20:49 -15.86808 -48.13915 6137 ft 197 kts 129°
2026-04-24 20:49 -15.87738 -48.12866 5866 ft 196 kts 129°
2026-04-24 20:50 -15.88619 -48.11821 5575 ft 187 kts 122°
2026-04-24 20:50 -15.88996 -48.10754 5480 ft 163 kts 92°
2026-04-24 20:50 -15.88983 -48.09593 5498 ft 172 kts 86°
2026-04-24 20:50 -15.88942 -48.08287 5524 ft 182 kts 88°
2026-04-24 20:51 -15.88893 -48.07023 5413 ft 167 kts 87°
2026-04-24 20:51 -15.88828 -48.05868 5182 ft 153 kts 86°
2026-04-24 20:51 -15.88757 -48.04739 5168 ft 159 kts 86°
2026-04-24 20:51 -15.88684 -48.03603 5106 ft 157 kts 86°
2026-04-24 20:52 -15.88612 -48.02479 5087 ft 157 kts 86°
2026-04-24 20:52 -15.88538 -48.01339 4896 ft 157 kts 86°
2026-04-24 20:52 -15.88465 -48.00213 4706 ft 156 kts 86°
2026-04-24 20:52 -15.88390 -47.99092 4480 ft 155 kts 85°
2026-04-24 20:53 -15.88318 -47.97983 4257 ft 152 kts 86°
2026-04-24 20:53 -15.88248 -47.96884 4093 ft 153 kts 85°
2026-04-24 20:53 -15.88177 -47.95767 3903 ft 155 kts 86°
2026-04-24 20:53 -15.88112 -47.94637 3675 ft 157 kts 86°
2026-04-24 20:54 -15.88037 -47.93518 3508 ft 149 kts 86°
2026-04-24 20:54 -15.87970 -47.92542 3478 ft 118 kts 85°
2026-04-24 20:54 -15.87928 -47.91939 3468 ft 44 kts 74°
2026-04-24 20:54 -15.87838 -47.91750 3463 ft 8 kts 54°
2026-04-24 20:55 -15.87831 -47.91740 3463 ft 6 kts 54°
2026-04-24 20:55 -15.87795 -47.91682 3460 ft 11 kts 58°
2026-04-24 20:55 -15.87746 -47.91601 3459 ft 14 kts 57°
2026-04-24 20:55 -15.87672 -47.91552 3460 ft 13 kts
2026-04-24 20:56 -15.87582 -47.91558 3460 ft 13 kts 357°
2026-04-24 20:56 -15.87495 -47.91563 3462 ft 12 kts 356°
2026-04-24 20:56 -15.87410 -47.91570 3463 ft 12 kts 356°
2026-04-24 20:56 -15.87328 -47.91574 3463 ft 12 kts 357°
2026-04-24 20:57 -15.87247 -47.91581 3463 ft 11 kts 355°
2026-04-24 20:57 -15.87195 -47.91584 3463 ft 11 kts 357°
2026-04-24 20:57 -15.87118 -47.91587 3463 ft 11 kts 357°
2026-04-24 20:57 -15.87059 -47.91621 3464 ft 10 kts 290°
2026-04-24 20:58 -15.87059 -47.91719 3464 ft 10 kts 266°
2026-04-24 20:58 -15.87062 -47.91766 3464 ft 10 kts 266°
2026-04-24 20:58 -15.87066 -47.91837 3464 ft 10 kts 266°
2026-04-24 20:58 -15.87074 -47.91899 3464 ft 7 kts 239°
2026-04-24 20:59 -15.87103 -47.91906 3464 ft 1 kts 181°
2026-04-24 20:59 -15.87114 -47.91907 3464 ft 2 kts 180°
2026-04-24 20:59 -15.87127 -47.91906 3464 ft 2 kts 178°
2026-04-24 20:59 -15.87129 -47.91906 3464 ft 0 kts 178°